Langdon, ND

2:23 AM CDT on October 01, 2016 (GMT -0500)
Langdon

Weather History for KD55 - December, 2013

Change the Weather History Date:

Tuesday, December 17, 2013

  Actual Average (KDVL) Record (KDVL)
Temperature  
Mean Temperature 12 °F -  
Max Temperature 23 °F 20 °F 44 °F (2004)
Min Temperature 0 °F 5 °F -24 °F (1983)
Degree Days  
Heating Degree Days 54    
Moisture  
Dew Point 5 °F    
Average Humidity 80    
Maximum Humidity 92    
Minimum Humidity 67    
Precipitation  
Precipitation 0.07 in - - ()
Sea Level Pressure  
Sea Level Pressure 29.91 in    
Wind  
Wind Speed 17 mph (West)    
Max Wind Speed 41 mph    
Max Gust Speed 55 mph    
Visibility 8 miles    
Events Rain , Snow    
Averages and records for this station are not official NWS values.
T = Trace of Precipitation, MM = Missing Value Source: NWS Daily Summary

Daily Weather History Graph

Daily Weather History Graph

Search for Another Location

Airport or City:

Trip Planner

Search our weather history database for the weather conditions in past years. The results will help you decide how hot, cold, wet, or windy it might be!

Date:

Astronomy

Dec. 17, 2013 Rise Set
Actual Time 8:21 AM CST 4:38 PM CST
Civil Twilight 7:44 AM CST 5:15 PM CST
Nautical Twilight 7:04 AM CST 5:55 PM CST
Astronomical Twilight 6:25 AM CST 6:34 PM CST
Moon 5:24 PM CST (12/17) 8:13 AM CST (12/17)
Length of Visible Light 9h 30m
Length of Day
8h 16m
Full, 100% of the Moon is Illuminated
Dec 17
Full
Dec 25
Last Quarter
Jan 1
New
Jan 7
First Quarter
Jan 15
Full

Hourly Weather History & Observations

Time (CST) Temp. Windchill Dew Point Humidity Pressure Visibility Wind Dir Wind Speed Gust Speed Precip Events Conditions
12:15 AM 23.0 °F 5.7 °F 19.4 °F 86% 29.76 in 3.0 mi WNW 28.8 mph 36.8 mph N/A   Clear
12:35 AM 23.0 °F 5.7 °F 19.4 °F 86% 29.76 in 2.5 mi WNW 28.8 mph 35.7 mph N/A   Clear
12:55 AM 23.0 °F 5.7 °F 17.6 °F 80% 29.76 in 2.0 mi WNW 28.8 mph 35.7 mph N/A   Clear
1:15 AM 23.0 °F 5.4 °F 17.6 °F 80% 29.76 in 3.0 mi WNW 29.9 mph 36.8 mph N/A   Clear
1:35 AM 23.0 °F 5.1 °F 17.6 °F 80% 29.77 in 2.5 mi WNW 31.1 mph 35.7 mph N/A   Clear
1:55 AM 23.0 °F 5.4 °F 17.6 °F 80% 29.77 in 2.0 mi WNW 29.9 mph 36.8 mph N/A   Haze
2:15 AM 23.0 °F 5.7 °F 19.4 °F 86% 29.78 in 1.8 mi WNW 28.8 mph 40.3 mph N/A   Clear
2:35 AM 23.0 °F 4.9 °F 19.4 °F 86% 29.78 in 1.2 mi WNW 32.2 mph 39.1 mph N/A Rain Light Freezing Rain
2:55 AM 23.0 °F 5.4 °F 19.4 °F 86% 29.79 in 1.2 mi WNW 29.9 mph 40.3 mph N/A Rain Light Freezing Rain
3:15 AM 23.0 °F 5.7 °F 19.4 °F 86% 29.80 in 1.5 mi WNW 28.8 mph 41.4 mph N/A Rain Light Freezing Rain
3:35 AM 23.0 °F 3.0 °F 17.6 °F 80% 29.80 in 0.2 mi NW 41.4 mph 55.2 mph N/A Snow Heavy Snow
3:55 AM 21.2 °F 2.7 °F 17.6 °F 86% 29.83 in 1.0 mi NW 31.1 mph 44.9 mph 0.01 in Rain Light Freezing Rain
4:15 AM 19.4 °F 1.1 °F 15.8 °F 86% 29.84 in 2.5 mi NW 27.6 mph 36.8 mph N/A   Haze
4:35 AM 19.4 °F 1.8 °F 14.0 °F 80% 29.86 in 3.0 mi NNW 25.3 mph 35.7 mph N/A   Haze
4:55 AM 17.6 °F 4.3 °F 14.0 °F 86% 29.88 in 5.0 mi North 12.7 mph 26.5 mph N/A Snow Light Snow
5:15 AM 15.8 °F 4.2 °F 10.4 °F 79% 29.89 in 3.0 mi North 9.2 mph - 0.02 in Snow Light Snow
5:35 AM 14.0 °F 1.2 °F 8.6 °F 79% 29.90 in 6.0 mi North 10.4 mph - 0.04 in Snow Light Snow
5:55 AM 12.2 °F -0.2 °F 8.6 °F 85% 29.92 in 5.0 mi NNW 9.2 mph - 0.05 in Snow Light Snow
6:15 AM 10.4 °F -2.4 °F 6.8 °F 85% 29.93 in 10.0 mi NNW 9.2 mph - N/A Snow Light Snow
6:35 AM 8.6 °F -5.5 °F 6.8 °F 92% 29.94 in 9.0 mi NNW 10.4 mph - N/A Snow Light Snow
6:55 AM 8.6 °F -4.7 °F 5.0 °F 85% 29.95 in 9.0 mi NNW 9.2 mph - 0.01 in Snow Light Snow
7:15 AM 6.8 °F -5.9 °F 3.2 °F 85% 29.96 in 10.0 mi NNW 8.1 mph - N/A Snow Light Snow
7:35 AM 5.0 °F -6.9 °F 1.4 °F 85% 29.97 in 9.0 mi North 6.9 mph - N/A Snow Light Snow
7:55 AM 5.0 °F -9.1 °F -0.4 °F 78% 29.97 in 10.0 mi North 9.2 mph - N/A   Overcast
8:15 AM 1.4 °F -11.3 °F -0.4 °F 92% 29.97 in 10.0 mi NNW 6.9 mph - N/A   Scattered Clouds
8:35 AM 1.4 °F -8.3 °F -2.2 °F 85% 29.99 in 10.0 mi NW 4.6 mph - N/A   Clear
8:55 AM 1.4 °F -11.3 °F -2.2 °F 85% 29.99 in 10.0 mi NNW 6.9 mph - N/A   Clear
9:15 AM 1.4 °F -9.9 °F -2.2 °F 85% 30.00 in 10.0 mi NW 5.8 mph - N/A   Clear
9:35 AM 1.4 °F -9.9 °F -4.0 °F 78% 30.01 in 10.0 mi NNW 5.8 mph - N/A   Clear
9:55 AM -0.4 °F -12.0 °F -4.0 °F 85% 30.01 in 10.0 mi NNW 5.8 mph - N/A   Clear
10:15 AM 1.4 °F -6.2 °F -2.2 °F 85% 30.01 in 10.0 mi North 3.5 mph - N/A   Clear
10:35 AM 5.0 °F -2.1 °F -2.2 °F 72% 30.02 in 10.0 mi NNW 3.5 mph - N/A   Clear
10:55 AM 1.4 °F -6.2 °F -4.0 °F 78% 30.02 in 10.0 mi NW 3.5 mph - N/A   Clear
11:15 AM 5.0 °F -4.1 °F -2.2 °F 72% 30.02 in 10.0 mi North 4.6 mph - N/A   Clear
11:35 AM 5.0 °F -5.6 °F -2.2 °F 72% 30.01 in 10.0 mi North 5.8 mph - N/A   Clear
11:55 AM 6.8 °F - -2.2 °F 67% 30.01 in 10.0 mi Calm Calm - N/A   Clear
12:15 PM 5.0 °F - -2.2 °F 72% 30.01 in 10.0 mi Calm Calm - N/A   Clear
12:35 PM 6.8 °F - -2.2 °F 67% 30.00 in 10.0 mi Calm Calm - N/A   Clear
12:55 PM 5.0 °F - -2.2 °F 72% 30.00 in 10.0 mi Calm Calm - N/A   Clear
1:15 PM 6.8 °F -2.0 °F -2.2 °F 67% 30.00 in 10.0 mi SW 4.6 mph - N/A   Clear
1:35 PM 5.0 °F -5.6 °F -2.2 °F 72% 29.99 in 10.0 mi SW 5.8 mph - N/A   Clear
1:55 PM 6.8 °F -3.5 °F -2.2 °F 67% 29.99 in 10.0 mi WSW 5.8 mph - N/A   Clear
2:15 PM 6.8 °F -3.5 °F -2.2 °F 67% 29.99 in 10.0 mi WSW 5.8 mph - N/A   Clear
2:35 PM 6.8 °F -0.1 °F -2.2 °F 67% 29.98 in 10.0 mi WSW 3.5 mph - N/A   Clear
2:55 PM 6.8 °F - -0.4 °F 72% 29.97 in 10.0 mi Calm Calm - N/A   Clear
3:15 PM 6.8 °F -2.0 °F -0.4 °F 72% 29.97 in 10.0 mi SW 4.6 mph - N/A   Clear
3:35 PM 6.8 °F -3.5 °F -0.4 °F 72% 29.97 in 10.0 mi WSW 5.8 mph - N/A   Clear
3:55 PM 5.0 °F -4.1 °F -0.4 °F 78% 29.98 in 10.0 mi WNW 4.6 mph - N/A   Clear
4:15 PM 5.0 °F -4.1 °F -0.4 °F 78% 29.97 in 10.0 mi WSW 4.6 mph - N/A   Clear
4:35 PM 5.0 °F -5.6 °F -0.4 °F 78% 29.98 in 10.0 mi West 5.8 mph - N/A   Clear
4:55 PM 3.2 °F -6.2 °F -2.2 °F 78% 29.97 in 10.0 mi West 4.6 mph - N/A   Clear
5:15 PM 3.2 °F -4.2 °F -2.2 °F 78% 29.97 in 10.0 mi WSW 3.5 mph - N/A   Clear
5:35 PM -0.4 °F -10.4 °F -4.0 °F 85% 29.96 in 10.0 mi SW 4.6 mph - N/A   Partly Cloudy
5:55 PM 3.2 °F -10.3 °F -0.4 °F 85% 29.96 in 10.0 mi SW 8.1 mph - N/A   Mostly Cloudy
6:15 PM 6.8 °F -6.9 °F 1.4 °F 79% 29.95 in 10.0 mi SSW 9.2 mph - N/A   Overcast
6:35 PM 6.8 °F -5.9 °F 1.4 °F 79% 29.93 in 10.0 mi South 8.1 mph - N/A   Overcast
6:55 PM 8.6 °F -3.7 °F 3.2 °F 79% 29.92 in 10.0 mi South 8.1 mph - N/A   Overcast
7:15 PM 8.6 °F -3.7 °F 3.2 °F 79% 29.91 in 10.0 mi South 8.1 mph - N/A   Overcast
7:35 PM 8.6 °F -4.7 °F 1.4 °F 73% 29.89 in 10.0 mi South 9.2 mph - N/A   Scattered Clouds
7:55 PM 8.6 °F -2.6 °F 3.2 °F 79% 29.88 in 10.0 mi SSE 6.9 mph - N/A   Partly Cloudy
8:15 PM 8.6 °F -2.6 °F 5.0 °F 85% 29.88 in 10.0 mi South 6.9 mph - N/A   Scattered Clouds
8:35 PM 10.4 °F -3.3 °F 5.0 °F 79% 29.86 in 10.0 mi SSE 10.4 mph - N/A   Mostly Cloudy
8:55 PM 10.4 °F -2.4 °F 6.8 °F 85% 29.85 in 10.0 mi SSE 9.2 mph - N/A   Mostly Cloudy
9:15 PM 12.2 °F 0.7 °F 8.6 °F 85% 29.84 in 10.0 mi SSE 8.1 mph - N/A   Scattered Clouds
9:35 PM 14.0 °F 2.0 °F 8.6 °F 79% 29.82 in 10.0 mi SSE 9.2 mph - N/A   Mostly Cloudy
9:55 PM 14.0 °F 1.2 °F 8.6 °F 79% 29.81 in 10.0 mi SSE 10.4 mph - N/A   Mostly Cloudy
10:15 PM 14.0 °F 1.2 °F 8.6 °F 79% 29.80 in 10.0 mi South 10.4 mph - N/A   Clear
10:35 PM 14.0 °F -0.8 °F 10.4 °F 86% 29.79 in 10.0 mi South 13.8 mph - N/A   Clear
10:55 PM 14.0 °F -0.2 °F 8.6 °F 79% 29.77 in 10.0 mi SSE 12.7 mph - N/A   Clear
11:15 PM 14.0 °F -0.2 °F 8.6 °F 79% 29.76 in 10.0 mi SSE 12.7 mph - N/A   Clear
11:35 PM 14.0 °F -0.2 °F 8.6 °F 79% 29.75 in 10.0 mi SSE 12.7 mph - N/A   Clear
11:55 PM 15.8 °F 2.1 °F 10.4 °F 79% 29.73 in 10.0 mi SSE 12.7 mph - N/A   Clear